"Time","Temp","Dewpoint","Humidity","Pressure","Direction","Speed","Gust","Precip","PrecipRate"
"00:04:59","46.2","31.3","55.8","30.19","301","4.4","17.3","0.00","0.00"
"00:09:59","46.3","31","55","30.19","297","5.1","13.2","0.00","0.00"
"00:14:56","46.3","31.1","55.2","30.19","334","4.3","11.5","0.00","0.00"
"00:19:59","46.3","31.1","55.2","30.19","321","5.5","15","0.00","0.00"
"00:24:57","46.4","31.1","55","30.19","283","4.8","16.1","0.00","0.00"
"00:29:56","46.3","31","55","30.20","291","3.4","10.8","0.00","0.00"
"00:34:59","46.3","31","54.9","30.20","293","5.3","20.7","0.00","0.00"
"00:39:58","46.4","30.7","54.3","30.20","277","4.5","15","0.00","0.00"
"00:44:58","46.3","30.7","54.3","30.20","300","3.2","8.4","0.00","0.00"
"00:49:57","46.2","30.7","54.4","30.20","313","4.6","18.4","0.00","0.00"
"00:54:59","46.2","30.6","54.2","30.20","308","5.1","13.2","0.00","0.00"
"00:59:56","46.2","30.5","54","30.20","326","6.2","18.4","0.00","0.00"
"01:04:57","46.1","30.4","54","30.19","295","2.4","8.1","0.00","0.00"
"01:09:56","45.8","30.1","54","30.19","321","2.6","8.4","0.00","0.00"
"01:14:57","45.6","30.2","54.7","30.20","354","2.1","8.1","0.00","0.00"
"01:19:57","45.3","30.1","55","30.20","315","2.7","5.8","0.00","0.00"
"01:24:56","45.1","29.9","55","30.20","325","1.9","4.8","0.00","0.00"
"01:29:56","44.9","30","55.8","30.20","293","1.3","3.6","0.00","0.00"
"01:34:56","44.6","29.9","56.2","30.19","293","2.7","8.4","0.00","0.00"
"01:39:56","44.5","30","56.6","30.19","289","2.4","8.4","0.00","0.00"
"01:44:57","44.4","30","56.7","30.20","346","2.8","8.4","0.00","0.00"
"01:49:57","44.4","30.1","57","30.20","313","3","8.4","0.00","0.00"
"01:54:56","44.3","30","57","30.20","291","2.6","6","0.00","0.00"
"01:59:57","44.2","29.9","57","30.20","298","2.2","7.2","0.00","0.00"
"02:04:57","44.2","29.9","57","30.20","328","2.9","8.4","0.00","0.00"
"02:09:56","44.2","29.9","57","30.20","330","3.9","12","0.00","0.00"
"02:14:57","44.2","29.9","57","30.21","329","4.7","13.2","0.00","0.00"
"02:19:57","44.3","30","57","30.21","323","4.7","12","0.00","0.00"
"02:24:59","44.3","30","57","30.21","326","3.9","12","0.00","0.00"
"02:29:56","44.3","30","57","30.21","337","6","13.2","0.00","0.00"
"02:34:56","44.2","29.9","57","30.21","333","8.4","15","0.00","0.00"
"02:39:56","44.1","29.8","57","30.21","307","6","16.8","0.00","0.00"
"02:44:57","43.9","29.6","56.9","30.22","326","4.7","10.8","0.00","0.00"
"02:49:57","43.8","29.1","56.2","30.22","312","6.6","17.3","0.00","0.00"
"02:54:57","43.6","28.9","56","30.22","306","5.8","17.3","0.00","0.00"
"02:59:57","43.5","28.8","56","30.22","323","6.2","19.6","0.00","0.00"
"03:04:59","43.4","28.7","56","30.22","330","3.9","12","0.00","0.00"
"03:09:59","43.1","28.5","56","30.22","324","4.4","8.4","0.00","0.00"
"03:14:59","42.8","28.5","56.6","30.22","340","4.6","12","0.00","0.00"
"03:19:56","42.6","28.4","57","30.22","354","4.2","12","0.00","0.00"
"03:24:57","42.3","28.1","57","30.22","335","5.2","11.5","0.00","0.00"
"03:29:58","42.1","28","57.2","30.22","325","5.7","20.7","0.00","0.00"
"03:34:59","41.9","28","57.7","30.22","329","3.9","15.6","0.00","0.00"
"03:39:57","41.6","27.7","57.7","30.22","321","6.2","21.6","0.00","0.00"
"03:44:58","41.5","27.4","57","30.22","331","9.4","21.9","0.00","0.00"
"03:49:56","41.5","27.4","57","30.21","329","12.3","23","0.00","0.00"
"03:54:56","41.3","27.2","57","30.21","320","5.4","17.3","0.00","0.00"
"03:59:58","41.1","26.9","56.8","30.22","329","9","18.4","0.00","0.00"
"04:04:57","40.9","26.8","57","30.22","342","7.6","16.1","0.00","0.00"
"04:09:56","40.7","26.3","56.3","30.22","322","7","22.8","0.00","0.00"
"04:14:58","40.6","25.7","55","30.22","314","8.1","26.4","0.00","0.00"
"04:19:59","40.5","25.6","55","30.22","339","10.7","26.5","0.00","0.00"
"04:24:57","40.3","25.1","54.2","30.22","329","7.7","23","0.00","0.00"
"04:29:58","40","25","54.7","30.23","307","4.9","13.2","0.00","0.00"
"04:34:58","39.7","24.8","55","30.23","303","5.1","11.5","0.00","0.00"
"04:39:57","39.5","24.9","55.5","30.23","304","5.6","17.3","0.00","0.00"
"04:44:57","39.4","25","56","30.24","332","7.8","23","0.00","0.00"
"04:49:56","39.3","24.9","56","30.24","329","6.8","18.4","0.00","0.00"
"04:54:57","39.3","24.9","56","30.24","307","6","15","0.00","0.00"
"04:59:56","39.2","24.8","56.1","30.25","318","4.4","13.2","0.00","0.00"
"05:04:57","38.9","25","57","30.25","343","3","7.2","0.00","0.00"
"05:09:56","38.7","24.8","57","30.25","337","3.3","8.4","0.00","0.00"
"05:14:56","38.6","24.7","57","30.26","344","2.3","4.8","0.00","0.00"
"05:19:56","38.5","24.7","57.3","30.26","284","4.5","15","0.00","0.00"
"05:24:58","38.7","24.8","57","30.26","321","6.6","19.6","0.00","0.00"
"05:29:57","38.8","24.9","57","30.27","323","5.9","17.3","0.00","0.00"
"05:34:57","38.8","24.9","57","30.27","324","5.2","16.1","0.00","0.00"
"05:39:56","38.6","24.7","57","30.27","325","2.2","4.8","0.00","0.00"
"05:44:58","38.4","24.6","57.3","30.27","345","3.4","8.4","0.00","0.00"
"05:49:57","38.3","24.7","57.7","30.27","315","2","4.8","0.00","0.00"
"05:54:59","38.2","24.7","57.8","30.27","322","5.7","17.3","0.00","0.00"
"05:59:58","38.4","24.7","57.6","30.27","321","5.2","12.7","0.00","0.00"
"06:04:58","38.3","24.5","57.2","30.27","321","6.9","17.3","0.00","0.00"
"06:09:59","38.4","24.1","56.1","30.27","323","8","19.6","0.00","0.00"
"06:14:59","38.5","24","55.8","30.29","335","6.4","15.6","0.00","0.00"
"06:19:58","38.4","24","55.7","30.29","331","5.5","17.3","0.00","0.00"
"06:24:56","38.2","23.9","56","30.29","331","5.8","16.1","0.00","0.00"
"06:29:59","38.2","23.8","55.8","30.29","328","6.9","13.2","0.00","0.00"
"06:34:58","38.2","23.8","55.9","30.29","328","6.8","17.3","0.00","0.00"
"06:39:59","38.1","23.8","56","30.29","327","6.9","14.4","0.00","0.00"
"06:44:59","38.1","23.8","56","30.30","347","8.9","20.4","0.00","0.00"
"06:49:58","38.1","23.8","56","30.30","356","6.2","20.7","0.00","0.00"
"06:54:56","37.9","23.6","56","30.30","326","2.7","7.2","0.00","0.00"
"06:59:56","37.6","23.7","56.8","30.31","345","3.2","9.6","0.00","0.00"
"07:04:56","37.4","23.5","57","30.31","291","1.4","8.1","0.00","0.00"
"07:09:56","37.2","23.4","57.1","30.31","308","1.3","3.6","0.00","0.00"
"07:14:57","37","23.6","58","30.32","332","2.6","7.2","0.00","0.00"
"07:19:57","36.9","23.6","58.2","30.32","338","4.8","10.8","0.00","0.00"
"07:24:56","37","23.7","58.4","30.32","338","5.8","15.6","0.00","0.00"
"07:29:59","37.1","23.7","58","30.32","332","6.4","16.1","0.00","0.00"
"07:34:56","37.3","23.9","58","30.32","341","7.6","16.1","0.00","0.00"
"07:39:58","37.4","24","58","30.32","332","5.4","12","0.00","0.00"
"07:44:58","37.3","23.9","58","30.35","332","4","12","0.00","0.00"
"07:49:57","37.3","23.9","58.2","30.35","349","3.4","7.2","0.00","0.00"
"07:54:56","37.2","24","58.5","30.35","339","4.8","8.4","0.00","0.00"
"07:59:57","37.2","24","58.4","30.35","337","6.2","15","0.00","0.00"
"08:04:56","37.3","23.9","58","30.35","334","6.4","15","0.00","0.00"
"08:09:59","37.4","24","58","30.35","332","5.7","13.2","0.00","0.00"
"08:14:59","37.5","24.1","58","30.36","352","3.7","10.8","0.00","0.00"
"08:19:59","37.9","24.3","57.6","30.36","329","4.3","13.2","0.00","0.00"
"08:24:57","38.6","24.5","56.6","30.36","307","3.4","12","0.00","0.00"
"08:29:59","39.1","24.7","55.9","30.37","323","5.4","11.5","0.00","0.00"
"08:30:11","39.2","24.4","55","30.37","323","5.8","8.4","0.00","0.00"
"09:49:56","41.7","24.9","51","30.38","358","7.8","12.7","0.00","0.00"
"09:54:58","41.9","24.9","50.5","30.38","346","6","15.6","0.00","0.00"
"09:59:56","42.1","25","50.3","30.38","328","5.3","12","0.00","0.00"
"10:04:59","42.7","24.7","48.8","30.38","323","4.6","13.2","0.00","0.00"
"10:09:57","42.9","24.8","48.6","30.38","333","4.6","12.7","0.00","0.00"
"10:14:59","42.5","23.8","47.4","30.39","337","7.5","15","0.00","0.00"
"10:19:56","42.1","23.9","48.2","30.39","326","6.4","15","0.00","0.00"
"10:24:59","42","23.5","47.5","30.39","311","5.7","15.6","0.00","0.00"
"10:29:57","41.8","22.9","46.8","30.39","325","8.2","16.1","0.00","0.00"
"10:34:58","42.6","23.9","47.3","30.38","339","3.6","12","0.00","0.00"
"10:39:56","42.8","23.5","46.2","30.38","0","6.5","13.2","0.00","0.00"
"10:44:58","42.7","23.4","46.2","30.39","354","4.4","15","0.00","0.00"
"10:49:59","43.1","23.6","45.8","30.39","322","4.2","10.8","0.00","0.00"
"10:54:59","43.6","23.8","45.4","30.39","342","3.8","8.4","0.00","0.00"
"10:59:56","44.2","24.5","45.5","30.39","350","4.2","15.6","0.00","0.00"
"11:04:59","43.8","23.7","44.9","30.39","342","6.9","16.1","0.00","0.00"
"11:09:57","44","24.6","46.2","30.39","12","3","11.5","0.00","0.00"
"11:14:59","44","24.3","45.5","30.39","340","3.7","10.8","0.00","0.00"
"11:19:56","43.9","24.8","46.7","30.38","297","3.7","7.2","0.00","0.00"
"11:24:56","45.5","25.5","45.2","30.38","336","3","7.2","0.00","0.00"
"11:29:57","45","24.4","44","30.38","320","3.6","8.4","0.00","0.00"
"11:34:58","44.8","24.3","44.3","30.37","345","6.7","15","0.00","0.00"
"11:39:57","43.7","23.7","44.9","30.37","338","4.9","13.2","0.00","0.00"
"11:44:56","43.8","24.4","46.1","30.37","324","4.3","16.1","0.00","0.00"
"11:49:56","44.6","24.7","45.3","30.37","296","4.6","12","0.00","0.00"
"11:54:59","45.1","25.7","46.4","30.37","340","4.1","13.2","0.00","0.00"
"11:59:56","45.6","25.1","44.4","30.37","320","2.3","7.2","0.00","0.00"
"12:04:59","45.5","24.6","43.6","30.37","333","4","8.4","0.00","0.00"
"12:09:58","45.8","26.2","46.1","30.37","338","2","12","0.00","0.00"
"12:14:56","45.9","24.7","43.1","30.37","274","4","8.4","0.00","0.00"
"12:19:57","45.7","24.9","43.7","30.37","338","6.2","15.6","0.00","0.00"
"12:24:57","45.6","25.1","44.3","30.37","359","5.3","16.1","0.00","0.00"
"12:29:58","45.9","24.6","42.9","30.37","334","6.4","16.8","0.00","0.00"
"12:34:59","45.9","24.8","43.3","30.36","279","3.9","10.8","0.00","0.00"
"12:39:59","47.1","25.4","42.3","30.36","340","3.7","10.4","0.00","0.00"
"12:44:57","47.5","25.5","42","30.36","320","4.2","10.8","0.00","0.00"
"12:49:56","47.4","25.3","41.9","30.36","355","4.7","12","0.00","0.00"
"12:54:58","46.2","24.5","42.4","30.36","260","3","8.4","0.00","0.00"
"12:59:56","47.3","25.4","42.2","30.36","327","3.7","10.8","0.00","0.00"
"13:04:59","47.4","25","41.4","30.35","343","3.9","10.8","0.00","0.00"
"13:09:57","47.6","25.2","41.4","30.35","317","3.2","8.4","0.00","0.00"
"13:14:57","47.4","25.2","41.7","30.35","352","3.3","8.4","0.00","0.00"
"13:19:59","47.6","25.1","41.1","30.34","336","2.2","6","0.00","0.00"
"13:24:57","48.1","24.3","39.1","30.34","342","4.9","10.8","0.00","0.00"
"13:29:56","48.6","25.5","40.4","30.35","351","3.8","9.2","0.00","0.00"
"13:34:59","48.3","25.1","40.1","30.35","295","3.8","7.2","0.00","0.00"
"13:39:56","48.1","24.8","39.8","30.35","331","5.8","15","0.00","0.00"
"13:44:59","49","25.5","39.7","30.35","339","2","6.9","0.00","0.00"
"13:49:58","49.1","25.8","40.1","30.35","313","3","7.2","0.00","0.00"
"13:54:59","48.8","24.8","38.9","30.35","266","5","9.6","0.00","0.00"
"13:59:58","48.1","24.2","38.9","30.35","292","3.6","10.8","0.00","0.00"
"14:04:57","47.4","24.1","39.8","30.35","321","4","8.4","0.00","0.00"
"14:09:59","47.2","24.3","40.3","30.35","321","3.1","8.1","0.00","0.00"
"14:14:59","47.5","24.5","40.3","30.35","292","4.5","8.4","0.00","0.00"
"14:19:58","48.7","25.7","40.5","30.34","281","3.9","7.2","0.00","0.00"
"14:24:59","49.1","24.9","38.5","30.34","320","4.1","8.4","0.00","0.00"
"14:29:58","48.2","24.5","39.3","30.34","212","4.1","7.2","0.00","0.00"
"14:34:58","49.1","25.4","39.3","30.33","338","3.4","8.4","0.00","0.00"
"14:39:59","48.4","25.3","40.2","30.33","313","1.9","3.6","0.00","0.00"
"14:44:58","47.4","23.9","39.4","30.33","264","2.7","4.8","0.00","0.00"
"14:49:57","47.2","24.2","40.2","30.33","320","3.2","6","0.00","0.00"
"14:54:59","47.3","24.6","40.7","30.33","277","3.5","7.2","0.00","0.00"
"14:59:58","47.3","24.6","40.7","30.33","246","3.4","6","0.00","0.00"
"15:04:57","47.2","24.3","40.2","30.32","242","2","4.8","0.00","0.00"
"15:09:59","48","25.1","40.5","30.32","232","1.6","4.8","0.00","0.00"
"15:14:59","48.7","25.5","40","30.32","227","1.6","3.6","0.00","0.00"
"15:19:58","49.1","25.3","39.1","30.31","91","2.1","6","0.00","0.00"
"15:24:58","49.3","24.9","38.3","30.31","344","2.7","7.2","0.00","0.00"
"15:29:57","48.3","24.1","38.4","30.31","317","3","6","0.00","0.00"
"15:34:56","47.9","24.2","39.2","30.31","319","2.9","6","0.00","0.00"
"15:39:57","47.8","24.5","39.7","30.31","339","4.3","10.8","0.00","0.00"
"15:44:56","48.4","24.3","38.5","30.31","347","3.8","10.4","0.00","0.00"
"15:49:59","48.4","23.7","37.8","30.31","328","3.7","8.4","0.00","0.00"
"15:54:57","47.9","24","38.9","30.31","323","2.6","6.9","0.00","0.00"
"15:59:59","47.6","23.9","39.1","30.31","324","3","6","0.00","0.00"
"16:04:58","47.4","24.1","39.7","30.30","346","3.3","8.4","0.00","0.00"
"16:09:57","47.2","24","39.9","30.30","340","3.2","6.9","0.00","0.00"
"16:14:56","47","23.7","39.8","30.30","350","2.6","7.2","0.00","0.00"
"16:19:59","47.1","24.1","40.2","30.30","322","2.3","4.8","0.00","0.00"
"16:24:59","47.2","23.6","39.2","30.30","280","2.7","4.8","0.00","0.00"
"16:29:58","47.3","24","39.7","30.30","285","2.2","4.8","0.00","0.00"
"16:34:57","47.2","23.8","39.4","30.29","302","1.6","4.6","0.00","0.00"
"16:39:58","47.2","23.6","39.1","30.29","304","0.9","3.6","0.00","0.00"
"16:44:58","47.2","24","39.8","30.31","307","1.9","6","0.00","0.00"
"16:49:57","47.2","23.8","39.5","30.31","298","1.5","4.8","0.00","0.00"
"16:54:58","47","23.7","39.5","30.31","325","2.1","4.8","0.00","0.00"
"16:59:57","46.8","23.3","39.3","30.31","326","0.4","2.3","0.00","0.00"
"17:04:56","46.6","23.7","40.3","30.31","326","0.4","1.2","0.00","0.00"
"17:09:58","46.3","23.3","40","30.31","326","0.6","3.6","0.00","0.00"
"17:14:57","46","23.2","40.4","30.31","326","0.2","1.2","0.00","0.00"
"17:19:57","45.8","24","42.1","30.31","326","0.4","2.4","0.00","0.00"
"17:24:58","45.5","23.7","42","30.31","326","0","1.2","0.00","0.00"
"17:29:58","45.2","23.5","42.2","30.31","326","0","1.2","0.00","0.00"
"17:34:57","44.9","23.6","42.7","30.30","326","0","1.2","0.00","0.00"
"17:39:58","44.7","23.6","43.1","30.30","326","0.1","2.4","0.00","0.00"
"17:44:58","44.5","24.3","44.7","30.31","326","0.4","2.4","0.00","0.00"
"17:49:58","44.1","24","44.6","30.31","326","0.7","2.4","0.00","0.00"
"17:54:58","43.8","23.6","44.5","30.31","326","0.1","2.3","0.00","0.00"
"17:59:58","43.5","24.5","46.8","30.32","326","0.5","1.2","0.00","0.00"
"18:04:57","43.1","24.3","47.3","30.32","326","0","0","0.00","0.00"
"18:09:59","42.8","23.9","47","30.32","326","0","0","0.00","0.00"
"18:14:59","42.6","24","47.4","30.32","326","0","0","0.00","0.00"
"18:19:59","42.4","24.1","48","30.31","326","0","0","0.00","0.00"
"18:24:59","42.1","24.4","49.2","30.31","326","0","0","0.00","0.00"
"18:29:58","41.9","24.7","50.3","30.31","326","0","0","0.00","0.00"
"18:34:57","41.7","24.7","50.6","30.31","326","0","0","0.00","0.00"
"18:39:57","41.4","24.9","51.7","30.31","326","0","0","0.00","0.00"
"18:44:57","41.2","24.8","51.9","30.32","326","0","0","0.00","0.00"
"18:49:56","40.9","24.6","51.9","30.32","326","0","0","0.00","0.00"
"18:54:56","40.7","24.9","53","30.32","326","0","0","0.00","0.00"
"18:59:59","40.4","24.9","53.7","30.32","326","0","0","0.00","0.00"
"19:04:59","40.1","24.8","54","30.32","326","0","0","0.00","0.00"
"19:09:57","39.9","24.7","54.3","30.32","326","0","0","0.00","0.00"
"19:14:59","39.8","25.2","55.7","30.33","326","0","0","0.00","0.00"
"19:19:58","39.6","25.6","57.2","30.33","326","0","0","0.00","0.00"
"19:24:58","39.5","25.4","56.9","30.33","326","0","2.4","0.00","0.00"
"19:29:57","39.4","25.7","57.7","30.33","326","1","2.4","0.00","0.00"
"19:34:56","39.3","25.4","57.3","30.32","326","0.2","1.2","0.00","0.00"
"19:39:56","39.3","25.8","58.3","30.32","326","0","0","0.00","0.00"
"19:44:56","39.1","26","59","30.33","326","0","0","0.00","0.00"
"19:49:59","38.9","25.8","59.1","30.33","326","0.1","1.2","0.00","0.00"
"19:54:59","38.7","25.9","59.7","30.33","326","0.1","1.2","0.00","0.00"
"19:59:58","38.5","25.7","59.7","30.33","326","0","0","0.00","0.00"
"20:04:57","38.2","25.7","60.5","30.33","326","0.3","2.4","0.00","0.00"
"20:09:59","38.1","25.7","60.8","30.33","326","0.3","2.3","0.00","0.00"
"20:14:59","37.9","25.7","61.1","30.34","326","0","0","0.00","0.00"
"20:19:58","37.8","26","62.3","30.34","326","0","0","0.00","0.00"
"20:24:58","37.6","26.1","63","30.34","326","1.1","3.6","0.00","0.00"
"20:29:57","37.5","26.1","63.2","30.34","326","1.3","3.5","0.00","0.00"
"20:34:56","37.3","26.2","64","30.33","326","0.1","2.4","0.00","0.00"
"20:39:59","37","26.3","65","30.33","326","0.1","2.3","0.00","0.00"
"20:44:59","36.7","26.4","66","30.33","326","0","0","0.00","0.00"
"20:49:58","36.3","26.6","67.5","30.33","326","0","0","0.00","0.00"
"20:54:58","36.1","26.6","68","30.33","326","0","0","0.00","0.00"
"20:59:58","36.1","26.6","68.2","30.33","326","0","0","0.00","0.00"
"21:04:57","36.1","26.6","68","30.33","326","0","0","0.00","0.00"
"21:09:59","36.2","26.6","68","30.33","326","0","0","0.00","0.00"
"21:14:57","36.2","26.6","68","30.33","326","0","0","0.00","0.00"
"21:19:57","36.3","26.7","67.8","30.32","326","0","0","0.00","0.00"
"21:24:58","36.2","26.5","67.6","30.32","326","0","0","0.00","0.00"
"21:29:58","36.2","26.2","66.9","30.32","326","0","0","0.00","0.00"
"21:34:58","36.1","26.6","68","30.32","326","0","0","0.00","0.00"
"21:39:59","36.1","27.1","69.7","30.32","326","0","0","0.00","0.00"
"21:44:59","35.9","26.9","69.5","30.32","326","0","0","0.00","0.00"
"21:49:59","35.9","26.5","68.3","30.31","326","0","0","0.00","0.00"
"21:54:59","35.8","26.4","68.3","30.31","326","0","0","0.00","0.00"
"21:59:59","35.8","26.9","69.7","30.31","326","0","0","0.00","0.00"
"22:04:59","35.7","26.5","69","30.31","326","0","0","0.00","0.00"
"22:09:57","35.7","26.7","69.5","30.31","326","0","0","0.00","0.00"
"22:14:57","35.7","26.4","68.8","30.31","326","0","0","0.00","0.00"
"22:19:56","35.7","26.4","68.7","30.30","326","0","0","0.00","0.00"
"22:24:56","35.7","26.7","69.5","30.30","326","0","0","0.00","0.00"
"22:29:56","35.7","26.6","69.2","30.30","326","0","0","0.00","0.00"
"22:34:59","35.7","26.5","69","30.30","326","0","0","0.00","0.00"
"22:39:59","35.6","26.6","69.6","30.30","326","0","0","0.00","0.00"
"22:44:59","35.5","26.8","70.4","30.30","326","0","0","0.00","0.00"
"22:49:58","35.4","26.6","70.3","30.29","326","0","0","0.00","0.00"
"22:54:58","35.3","26.5","70","30.29","326","0","0","0.00","0.00"
"22:59:57","35.3","26.5","70","30.29","326","0","0","0.00","0.00"
"23:04:56","35.3","26.6","70.7","30.28","326","0","0","0.00","0.00"
"23:09:58","35.1","26.9","71.6","30.28","326","0","0","0.00","0.00"
"23:14:58","35","26.9","72","30.29","326","0","0","0.00","0.00"
"23:19:56","35","27","72.3","30.29","326","0","0","0.00","0.00"
"23:24:56","34.9","26.8","72.2","30.29","326","0","0","0.00","0.00"
"23:29:59","34.7","26.8","72.5","30.29","326","0","0","0.00","0.00"
"23:34:58","34.6","26.8","73","30.29","326","0","0","0.00","0.00"
"23:39:58","34.7","26.9","73","30.29","326","0","0","0.00","0.00"
"23:44:57","34.7","26.9","73","30.29","326","0","0","0.00","0.00"
